Regional Weather Roundup
Issued by NWS Northern Indiana

Home | Current Version | Previous Version | Graphics & Text | Print | Product List | Glossary On
Versions: 1 2 3 4 5 6 7 8 9 10 11 12 13 14 15 16 17 18 19 20 21 22 23 24 25 26 27 28 29 30 31 32 33 34 35 36 37 38 39 40 41 42 43 44 45 46 47 48 49 50
000
ASUS43 KIWX 280400
RWRIWX

KIWX WEATHER ROUNDUP
NATIONAL WEATHER SERVICE NORTHERN INDIANA
1200 AM EDT THU AUG 28 2014

NOTE: "FAIR" INDICATES FEW OR NO CLOUDS BELOW 12,000 FEET WITH NO
SIGNIFICANT WEATHER AND/OR OBSTRUCTIONS TO VISIBILITY.

* THESE STATIONS ARE NOT UNDER NWS QUALITY CONTROL. THEY ALSO MAY NOT
  REPORT WEATHER SUCH AS PRECIPITATION OR FOG.

INZ001>027-280500-
NORTHERN INDIANA

CITY           SKY/WX    TMP DP  RH WIND       PRES   REMARKS
VALPARAISO     CLEAR     60  58  92 NE5       30.13S
KNOX*          CLEAR     61  58  90 N6        30.12S
SOUTH BEND     PTCLDY    64  59  83 NE7       30.13F
GOSHEN         PTCLDY    65  61  87 N7        30.12S
MONTICELLO*    CLEAR     65  61  86 NE5       30.10S
ANGOLA*        CLEAR     63  61  94 CALM      30.13S
FORT WAYNE     MOCLDY    68  60  75 NE10      30.11S
PERU/GRISSOM   PTCLDY    66  66 100 N3        30.10S

$$
INZ028>050-280500-
CENTRAL INDIANA

CITY           SKY/WX    TMP DP  RH WIND       PRES   REMARKS
LAFAYETTE      CLEAR     67  60  78 NE5       30.10R
KOKOMO*        PTCLDY    66  61  82 NE6       30.09F
MUNCIE*        CLEAR     67  61  81 NE5       30.09S
INDIANAPOLIS   CLEAR     73  64  73 NE6       30.07S

$$
MIZ043>046-050>051-056>058-064>065-071>073-077>080-280500-
SOUTHWEST LOWER MICHIGAN

CITY           SKY/WX    TMP DP  RH WIND       PRES   REMARKS
BATTLE CREEK   PTCLDY    64  57  78 N7        30.14S
BENTON HARBOR  PTCLDY    59  57  93 CALM      30.14S
COLDWATER*     MOCLDY    64  62  91 CALM      30.13S
HILLSDALE*     PTCLDY    59  59  99 CALM      30.13S
HOLLAND        PTCLDY    64  54  69 NE3       30.15S
GRAND RAPIDS   CLEAR     61  59  93 NE7       30.15S
KALAMAZOO      PTCLDY    63  57  81 N6        30.14R
STURGIS*       MOCLDY    63  61  94 N5        30.12F
THREE RIVERS*  FAIR      65  61  87 N3        30.14S

$$
OHZ001>008-015>018-024>025-280500-
NORTHWEST OHIO

CITY           SKY/WX    TMP DP  RH WIND       PRES   REMARKS
DEFIANCE       MOCLDY    67  61  81 CALM      30.11S
FINDLAY        MOCLDY    70  63  78 E6        30.09S
TOLEDO EXPRESS MOCLDY    64  59  83 CALM      30.10S
TOLEDO METCALF MOCLDY    71  60  68 NE5       30.11R
LIMA           PTCLDY    68  65  90 NE6       30.09F

$$
&&


USA.gov is the U.S. government's official web portal to all federal, state and local government web resources and services.